CW5111 Weather Reports


time (UTC)temp
C
wind
direction
speed
KPH
gust
KPH
rain 1hr
cm
rain 24hr
cm
rain mn
cm
humidity
%
barometer
mb
20260508083003 13 98 4.8 11.3 0.00 0.00 0.00 73 1016.7
20260508081504 14 108 4.8 11.3 0.00 0.00 0.00 72 1016.7
20260508080004 13 109 3.2 6.4 0.00 0.00 0.00 74 1016.8
20260508074503 12 140 4.8 9.7 0.00 0.00 0.00 74 1016.7
20260508073003 12 158 4.8 9.7 0.00 0.00 0.00 74 1016.7
20260508071503 12 136 4.8 11.3 0.00 0.00 0.00 76 1016.5
20260508070005 11 120 3.2 6.4 0.00 0.00 0.00 79 1016.4
20260508063003 10 105 3.2 6.4 0.00 0.00 0.00 82 1016.2
20260508061503 9 95 1.6 4.8 0.00 0.00 0.00 84 1016.1
20260508060004 8 134 1.6 4.8 0.00 0.00 0.00 84 1016.1
20260508054503 8 142 3.2 8.0 0.00 0.00 0.00 85 1016.0
20260508051503 8 149 1.6 4.8 0.00 0.00 0.00 86 1016.0
20260508050004 7 145 3.2 6.4 0.00 0.00 0.00 87 1015.9
20260508044503 7 146 1.6 3.2 0.00 0.00 0.00 87 1015.8
20260508043004 7 157 1.6 3.2 0.00 0.00 0.00 87 1015.7
20260508041504 7 142 1.6 3.2 0.00 0.00 0.00 86 1015.6
20260508034504 8 123 1.6 3.2 0.00 0.00 0.00 85 1015.6
20260508033003 8 140 1.6 3.2 0.00 0.00 0.00 84 1015.7
20260508031503 8 123 1.6 3.2 0.00 0.00 0.00 83 1015.7
20260508030005 8 155 3.2 9.7 0.00 0.00 0.00 83 1015.8
20260508024504 8 179 3.2 6.4 0.00 0.00 0.00 84 1015.8
20260508023003 8 134 1.6 6.4 0.00 0.00 0.00 84 1015.8
20260508021503 8 145 1.6 3.2 0.00 0.00 0.00 84 1015.7
20260508020004 8 138 1.6 4.8 0.00 0.00 0.00 83 1015.6
20260508014504 8 118 1.6 4.8 0.00 0.00 0.00 83 1015.6
20260508010004 9 162 1.6 4.8 0.00 0.00 0.00 82 1015.7
20260508004504 9 151 3.2 6.4 0.00 0.00 0.00 81 1015.7
20260508003004 10 154 1.6 4.8 0.00 0.00 0.00 81 1015.7
20260508001504 10 153 3.2 6.4 0.00 0.00 0.00 80 1015.8
20260508000004 10 152 3.2 4.8 0.00 0.00 0.00 80 1015.8
20260507234504 10 148 3.2 4.8 0.00 0.00 0.00 79 1015.8
20260507231504 10 148 3.2 4.8 0.00 0.00 0.00 79 1015.7
20260507230006 10 145 1.6 3.2 0.00 0.00 0.00 78 1015.8
20260507224504 10 142 1.6 4.8 0.00 0.00 0.00 78 1015.7
20260507223003 10 134 1.6 4.8 0.00 0.00 0.00 78 1015.7
20260507221503 10 141 1.6 3.2 0.00 0.00 0.00 77 1015.7
20260507220004 10 149 1.6 4.8 0.00 0.00 0.00 76 1015.7
20260507214503 10 143 3.2 8.0 0.00 0.00 0.00 75 1015.7
20260507211503 11 138 3.2 4.8 0.00 0.00 0.00 74 1015.6
20260507210004 11 168 1.6 4.8 0.00 0.00 0.00 73 1015.6
20260507204504 11 214 1.6 4.8 0.00 0.00 0.00 72 1015.5
20260507203004 11 247 1.6 6.4 0.00 0.00 0.00 71 1015.3
20260507200004 11 214 1.6 3.2 0.00 0.00 0.00 68 1015.1
20260507194504 12 213 1.6 8.0 0.00 0.00 0.00 66 1015.0
20260507193003 12 198 1.6 4.8 0.00 0.00 0.00 65 1014.9
20260507191504 12 207 1.6 4.8 0.00 0.00 0.00 64 1014.9
20260507190005 12 218 3.2 8.0 0.00 0.00 0.00 62 1014.8
20260507184504 13 235 3.2 6.4 0.00 0.00 0.00 61 1014.7
20260507183003 13 242 3.2 8.0 0.00 0.00 0.00 59 1014.6
20260507181504 13 209 3.2 8.0 0.00 0.00 0.00 57 1014.5
20260507180004 13 237 4.8 9.7 0.00 0.00 0.00 55 1014.3
20260507174504 13 201 3.2 8.0 0.00 0.00 0.00 54 1014.4
20260507171503 14 156 6.4 14.5 0.00 0.00 0.00 51 1014.3
20260507170005 15 186 3.2 11.3 0.00 0.00 0.00 50 1014.3
20260507164503 15 143 4.8 16.1 0.00 0.00 0.00 50 1014.4
20260507163004 15 160 4.8 14.5 0.00 0.00 0.00 51 1014.4
20260507160004 15 140 6.4 12.9 0.00 0.00 0.00 48 1014.4
20260507154504 15 131 4.8 14.5 0.00 0.00 0.00 47 1014.4
20260507153004 15 153 6.4 14.5 0.00 0.00 0.00 47 1014.5
20260507151504 16 147 6.4 17.7 0.00 0.00 0.00 45 1014.5
20260507150005 15 114 4.8 11.3 0.00 0.00 0.00 46 1014.6
20260507144503 15 172 3.2 11.3 0.00 0.00 0.00 46 1014.7
20260507143004 16 157 4.8 12.9 0.00 0.00 0.00 45 1014.8
20260507141504 16 183 4.8 11.3 0.00 0.00 0.00 42 1014.9
20260507140006 17 139 3.2 9.7 0.00 0.00 0.00 42 1015.0
20260507134503 16 132 4.8 16.1 0.00 0.00 0.00 46 1015.1
20260507133003 16 147 3.2 9.7 0.00 0.00 0.00 45 1015.1
20260507131504 15 131 4.8 11.3 0.00 0.00 0.00 47 1015.2
20260507130003 15 125 4.8 9.7 0.00 0.00 0.00 46 1015.3
20260507124503 16 173 4.8 12.9 0.00 0.00 0.00 44 1015.3
20260507123002 17 172 6.4 14.5 0.00 0.00 0.00 47 1015.3
20260507121502 16 122 3.2 9.7 0.00 0.00 0.00 47 1015.2
20260507120004 15 155 3.2 11.3 0.00 0.00 0.00 52 1015.5
20260507113002 15 187 4.8 12.9 0.00 0.00 0.00 53 1015.7
20260507111503 14 213 3.2 9.7 0.00 0.00 0.00 59 1015.8
20260507110003 13 190 4.8 12.9 0.00 0.00 0.00 59 1015.8
20260507104503 13 191 3.2 9.7 0.00 0.00 0.00 63 1016.0
20260507103002 12 150 3.2 8.0 0.00 0.00 0.00 65 1016.0
20260507101503 12 150 4.8 11.3 0.00 0.00 0.00 64 1016.1
20260507100004 12 121 4.8 9.7 0.00 0.00 0.00 66 1016.1
20260507094503 12 122 4.8 11.3 0.00 0.00 0.00 71 1016.0
20260507093002 12 108 4.8 9.7 0.00 0.00 0.00 73 1016.1
20260507091503 11 119 4.8 11.3 0.00 0.00 0.00 73 1016.1
20260507090004 11 129 4.8 9.7 0.00 0.00 0.00 76 1016.1